[[{"header":{"parameterUnit":"m.s-1","parameterCategory":1,"la1":30.2991,"la2":30.254,"lo1":-89.0895,"lo2":-89.0444,"dy":0.0017,"dx":0.0017,"nx":28,"ny":28,"refTime":"2024-12-12T03:00:00:Z","depth":0,"parameterNumber":2,"parameterNumberName":"U-component_of_WINDS"},"data":[0,0,0,0,0,0,0,0,0,0,0,0,0,0,0,0,0,0,0,0,0,0,0,0,0,0,0,0,0,0,0,0,0,0,0,0,0,0,0,0,0,0,0,0,0,0,0,0,0,0,0,0,0,0,0,0,0,0,-5.8285,-5.8285,0,-5.8292,-5.8292,-5.8292,-5.8144,-5.814,-5.8136,-5.8132,-5.8142,-5.8146,-5.815,0,0,0,0,0,0,0,0,0,0,0,0,0,-5.8144,-5.8148,-5.8285,-5.8285,-5.8285,-5.8292,-5.8292,-5.8292,-5.8145,-5.814,-5.8135,-5.813,-5.8141,-5.8146,-5.8151,0,0,0,0,0,0,0,0,0,0,0,0,0,-5.8184,-5.8149,-5.8285,-5.8212,-5.8205,-5.8292,-5.8292,-5.8292,-5.8146,-5.814,-5.8134,-5.8128,-5.8139,-5.8145,-5.8151,-5.8309,0,0,-5.817,-5.8172,0,0,0,0,0,0,0,0,-5.8182,-5.8189,-5.8222,-5.8217,-5.821,-5.8211,-5.8246,-5.8298,-5.8147,-5.8168,-5.8132,-5.8125,-5.817,-5.8173,-5.8188,-5.8309,-5.8309,-5.817,-5.8174,-5.8176,-5.8178,0,0,0,0,0,0,0,-5.8179,-5.8188,-5.8287,-5.8223,-5.8216,-5.818,-5.8179,-5.8255,-5.8203,-5.8166,-5.8155,-5.8158,-5.8166,-5.8183,-5.8187,-5.831,-5.817,-5.8175,-5.8179,-5.8181,-5.8562,-5.8568,0,0,0,0,0,0,-5.8186,-5.8187,-5.8287,-5.8288,-5.8181,-5.8187,-5.8186,-5.8217,-5.8202,-5.8194,-5.8163,-5.8151,-5.8175,-5.818,-5.8187,-5.8371,-5.8176,-5.8182,-5.8185,-5.8556,-5.8563,-5.857,0,0,0,0,0,0,-5.8184,-5.8197,-5.8287,-5.8234,-5.8243,-5.8196,-5.8232,-5.822,-5.8237,-5.8199,-5.819,-5.819,-5.8171,-5.8178,-5.828,-5.837,-5.8185,-5.819,-5.8548,-5.8558,-5.8567,-5.8742,0,0,0,0,0,0,-5.818,-5.8197,-5.8255,-5.8237,-5.8247,-5.838,-5.8237,-5.8225,-5.8247,-5.8232,-5.8222,-5.8215,-5.8167,-5.8271,-5.8286,-5.8375,-5.8195,-5.854,-5.8552,-5.8564,-5.8728,-5.8756,-5.8781,0,0,0,0,0,-5.8176,-5.8304,-5.8259,-5.8272,-5.8319,-5.8385,-5.839,-5.8332,-5.8255,-5.8314,-5.829,-5.8215,-5.8357,-5.8283,-5.8298,-5.839,-5.8534,-5.8549,-5.8563,-5.8716,-5.8751,-5.878,0,0,0,0,0,0,-5.8335,-5.8301,-5.825,-5.8376,-5.8385,-5.836,-5.8432,-5.837,-5.8401,-5.8385,-5.8311,-5.8311,-5.8424,-5.8417,-5.8335,-5.8542,-5.8432,-5.845,-5.8543,-5.8576,-5.8602,-5.8602,-5.82,0,0,0,0,0,-5.8385,-5.8441,-5.8407,-5.8522,-5.8529,-5.8481,-5.8507,-5.8461,-5.8467,-5.847,-5.8453,-5.8463,-5.8509,-5.8542,-5.8583,-5.8725,-5.8722,-5.8796,-5.8823,-5.8844,-5.8862,-5.8938,-5.8971,-5.8618,-5.8618,-5.8618,0,0,-5.8488,-5.8476,-5.8516,-5.8554,-5.8555,-5.8616,-5.8484,-5.8553,-5.8598,-5.848,-5.8575,-5.8564,-5.857,-5.8693,-5.8746,-5.869,-5.8958,-5.8863,-5.8881,-5.8886,-5.8957,-5.899,-5.902,-5.8628,-5.8627,-5.8625,0,0,-5.8708,-5.8704,-5.88,-5.8804,-5.8807,-5.8774,-5.8797,-5.8782,-5.877,-5.8863,-5.8777,-5.8829,-5.8911,-5.8919,-5.8934,-5.9158,-5.9091,-5.9173,-5.9312,-5.9388,-5.9416,-5.944,-5.9522,-5.9552,-5.919,-5.9191,-5.9191,0,-5.8837,-5.8924,-5.8857,-5.8933,-5.8952,-5.8848,-5.8945,-5.8952,-5.897,-5.8986,-5.8923,-5.9024,-5.902,-5.9145,-5.92,-5.9214,-5.924,-5.9175,-5.9417,-5.9441,-5.9462,-5.954,-5.957,-5.9201,-5.92,-5.9199,-5.9198,0,-5.9082,-5.9144,-5.9221,-5.924,-5.9268,-5.9355,-5.9302,-5.9339,-5.9291,-5.9265,-5.9363,-5.9355,-5.9393,-5.9418,-5.9372,-5.9537,-5.9502,-5.9429,-5.9317,-5.9507,-5.9579,-5.9608,-5.9216,-5.9212,-5.9209,-5.9206,0,0,-5.9403,-5.9384,-5.9414,-5.9422,-5.9418,-5.9465,-5.9547,-5.9584,-5.9618,-5.9633,-5.9701,-5.9773,-5.9705,-5.9723,-5.9676,-5.9742,-5.9923,-5.9661,-5.966,-5.9711,-6.0106,-6.0163,-6.0198,-5.9877,-5.9882,-5.9887,-6.0106,0,-5.9618,-5.9756,-5.9699,-5.9843,-5.99,-5.9803,-5.9874,-5.988,-5.9859,-5.9905,-5.988,-5.9933,-5.9839,-5.9849,-5.991,-5.9888,-6.0001,-5.9871,-5.9941,-5.9945,-5.9945,-6.0235,-6.0294,-6.0502,-6.0134,-6.0138,-6.0142,0,-5.9887,-5.9914,-6.0064,-6.0051,-6.0073,-6.0138,-6.0168,-6.0213,-6.0218,-6.0198,-6.0218,-6.0157,-6.0238,-6.0125,-6.0236,-6.0149,-6.0174,-6.0168,-6.0175,-6.018,-6.0056,-6.025,-6.0567,-6.0599,-6.0185,-6.0181,-6.0178,0,-6.0109,-6.0182,-6.0281,-6.0291,-6.0278,-6.0327,-6.0324,-6.0323,-6.0349,-6.0376,-6.0392,-6.0428,-6.0448,-6.0478,-6.0429,-6.0351,-6.0548,-6.0431,-6.0534,-6.0536,-6.0581,-6.058,-6.0909,-6.0596,-6.0595,-6.0594,-6.0594,0,-6.0356,-6.0452,-6.0381,-6.0442,-6.0547,-6.0481,-6.0587,-6.0573,-6.0574,-6.0632,-6.0549,-6.0606,-6.0536,-6.0587,-6.0549,-6.0648,-6.0657,-6.0644,-6.0633,-6.0652,-6.0654,-6.0669,-6.0654,-6.0603,-6.0601,-6.0599,-6.0598,0,-6.0621,-6.0577,-6.068,-6.0659,-6.0656,-6.0735,-6.0718,-6.0775,-6.0747,-6.0822,-6.0835,-6.0793,-6.0847,-6.0801,-6.0854,-6.0828,-6.0961,-6.0928,-6.0959,-6.0951,-6.1058,-6.1049,-6.1409,-6.1454,-6.1111,-6.1114,-6.1117,0,-6.0783,-6.0854,-6.0842,-6.0875,-6.0877,-6.093,-6.0957,-6.0894,-6.0926,-6.0938,-6.0994,-6.1041,-6.1076,-6.1169,-6.1143,-6.1184,-6.1153,-6.1276,-6.1159,-6.1176,-6.1157,-6.1154,-6.1162,-6.1301,-6.1305,-6.1308,-6.1311,0,-6.1074,-6.1049,-6.109,-6.1125,-6.1159,-6.1183,-6.12,-6.1232,-6.1168,-6.1208,-6.1262,-6.129,-6.1344,-6.1393,-6.1425,-6.1423,-6.1358,-6.1348,-6.1374,-6.1396,-6.1412,-6.1406,-6.1026,-6.134,-6.1337,-6.1335,-6.1334,-6.1332,-6.1294,-6.1353,-6.1355,-6.1403,-6.141,-6.1429,-6.1481,-6.1461,-6.1505,-6.1544,-6.1505,-6.1572,-6.1577,-6.1613,-6.1619,-6.1671,-6.162,-6.1658,-6.1668,-6.1679,-6.1695,-6.1402,-6.1677,-6.1676,-6.1675,-6.1674,-6.1674,0,-6.1583,-6.1578,-6.1624,-6.1652,-6.1691,-6.1624,-6.1641,-6.1678,-6.1738,-6.1748,-6.1784,-6.1848,-6.1895,-6.1874,-6.1915,-6.1962,-6.1933,-6.1975,-6.1972,-6.1973,-6.1738,-6.1711,-6.1998,-6.1998,-6.1998,-6.1998,-6.1997,-6.1997,-6.1738,-6.1836,-6.1811,-6.1913,-6.1907,-6.1972,-6.1988,-6.2005,-6.2012,-6.2088,-6.2127,-6.2112,-6.2109,-6.215,-6.2192,-6.2184,-6.2204,-6.2258,-6.224,-6.2021,-6.1989,-6.1959,-6.1934,-6.2262,-6.2262,-6.247,-6.2472,-6.2474]},{"header":{"parameterUnit":"m.s-1","parameterCategory":1,"la1":30.2991,"la2":30.254,"lo1":-89.0895,"lo2":-89.0444,"dy":0.0017,"dx":0.0017,"nx":28,"ny":28,"refTime":"2024-12-12T03:00:00:Z","depth":0,"parameterNumber":3,"parameterNumberName":"V-component_of_WINDS"},"data":[0,0,0,0,0,0,0,0,0,0,0,0,0,0,0,0,0,0,0,0,0,0,0,0,0,0,0,0,0,0,0,0,0,0,0,0,0,0,0,0,0,0,0,0,0,0,0,0,0,0,0,0,0,0,0,0,0,0,-1.8206,-1.8206,0,-1.8178,-1.8177,-1.8177,-1.8103,-1.8102,-1.81,-1.8099,-1.8071,-1.8071,-1.8072,0,0,0,0,0,0,0,0,0,0,0,0,0,-1.8197,-1.8198,-1.8206,-1.8206,-1.8206,-1.8178,-1.8177,-1.8177,-1.8104,-1.8102,-1.81,-1.8098,-1.807,-1.8071,-1.8072,0,0,0,0,0,0,0,0,0,0,0,0,0,-1.8188,-1.8198,-1.8206,-1.8166,-1.8162,-1.8178,-1.8177,-1.8177,-1.8104,-1.8102,-1.8099,-1.8097,-1.807,-1.8071,-1.8072,-1.8126,0,0,-1.8076,-1.8076,0,0,0,0,0,0,0,0,-1.8189,-1.8189,-1.8172,-1.8168,-1.8164,-1.8142,-1.8164,-1.816,-1.8105,-1.8126,-1.8099,-1.8096,-1.8096,-1.8095,-1.8095,-1.8125,-1.8124,-1.8076,-1.8076,-1.8077,-1.8077,0,0,0,0,0,0,0,-1.819,-1.819,-1.8195,-1.8172,-1.8167,-1.8149,-1.8145,-1.8163,-1.8125,-1.8124,-1.8118,-1.8116,-1.8094,-1.8094,-1.8094,-1.8123,-1.8076,-1.8077,-1.8077,-1.8078,-1.8195,-1.8197,0,0,0,0,0,0,-1.8196,-1.8191,-1.8196,-1.8194,-1.8171,-1.8151,-1.8146,-1.8151,-1.8124,-1.8118,-1.8118,-1.8113,-1.8093,-1.8093,-1.8092,-1.8153,-1.8077,-1.8078,-1.8078,-1.8193,-1.8196,-1.8198,0,0,0,0,0,0,-1.8196,-1.8197,-1.8197,-1.8191,-1.8189,-1.8153,-1.8159,-1.8152,-1.8152,-1.812,-1.8113,-1.8125,-1.8091,-1.8091,-1.8118,-1.8151,-1.8078,-1.8079,-1.819,-1.8194,-1.8197,-1.8276,0,0,0,0,0,0,-1.8196,-1.8198,-1.8218,-1.8192,-1.819,-1.8223,-1.8161,-1.8153,-1.8154,-1.8147,-1.8125,-1.8119,-1.809,-1.8117,-1.8119,-1.8151,-1.808,-1.8187,-1.8191,-1.8196,-1.827,-1.8282,-1.8292,0,0,0,0,0,-1.8196,-1.8242,-1.8219,-1.8221,-1.8215,-1.8225,-1.8224,-1.8189,-1.8157,-1.8177,-1.8156,-1.812,-1.8147,-1.812,-1.8122,-1.8155,-1.8184,-1.819,-1.8195,-1.8265,-1.8279,-1.8291,0,0,0,0,0,0,-1.8274,-1.8238,-1.8213,-1.8251,-1.8242,-1.8213,-1.8237,-1.8206,-1.8206,-1.8199,-1.8155,-1.8151,-1.8184,-1.8172,-1.8143,-1.8206,-1.816,-1.8166,-1.8212,-1.8225,-1.8236,-1.8238,-1.8081,0,0,0,0,0,-1.8295,-1.8307,-1.8275,-1.8312,-1.8308,-1.8274,-1.8277,-1.8251,-1.824,-1.8235,-1.8216,-1.8207,-1.8213,-1.8219,-1.8223,-1.8268,-1.8262,-1.8291,-1.8302,-1.8311,-1.8317,-1.8339,-1.8352,-1.8216,-1.8216,-1.8216,0,0,-1.834,-1.8322,-1.8332,-1.8327,-1.8317,-1.8329,-1.8271,-1.8287,-1.8296,-1.8238,-1.8262,-1.8248,-1.8235,-1.8271,-1.8286,-1.8262,-1.8353,-1.8318,-1.8326,-1.8327,-1.8346,-1.8359,-1.8371,-1.822,-1.822,-1.8219,0,0,-1.8427,-1.8415,-1.8444,-1.8435,-1.8419,-1.8396,-1.8403,-1.8379,-1.8367,-1.839,-1.8346,-1.8356,-1.8369,-1.8361,-1.8358,-1.8442,-1.8408,-1.8445,-1.8501,-1.8523,-1.8534,-1.8543,-1.8572,-1.8584,-1.8451,-1.8451,-1.8451,0,-1.8485,-1.8502,-1.8463,-1.8482,-1.8481,-1.8428,-1.8456,-1.8449,-1.8437,-1.8437,-1.8411,-1.8424,-1.8412,-1.8445,-1.8465,-1.8465,-1.8471,-1.8447,-1.8535,-1.8544,-1.8552,-1.858,-1.8591,-1.8455,-1.8455,-1.8454,-1.8454,0,-1.8574,-1.8586,-1.8612,-1.86,-1.8601,-1.8625,-1.859,-1.8596,-1.8569,-1.8549,-1.8573,-1.8556,-1.8555,-1.8561,-1.8535,-1.859,-1.8576,-1.8543,-1.8496,-1.857,-1.8595,-1.8606,-1.8462,-1.846,-1.8459,-1.8458,0,0,-1.871,-1.8675,-1.8685,-1.8679,-1.8657,-1.8667,-1.8688,-1.8686,-1.8693,-1.8686,-1.8702,-1.8713,-1.8682,-1.8679,-1.8652,-1.8672,-1.8738,-1.8636,-1.8635,-1.8656,-1.8797,-1.8822,-1.8835,-1.8716,-1.8718,-1.8719,-1.8798,0,-1.8792,-1.8826,-1.8791,-1.8832,-1.8843,-1.8792,-1.881,-1.8799,-1.878,-1.8787,-1.8766,-1.8774,-1.8733,-1.8731,-1.8748,-1.8727,-1.8766,-1.8721,-1.8731,-1.8732,-1.8736,-1.8848,-1.8874,-1.895,-1.8808,-1.8809,-1.8811,0,-1.8893,-1.8889,-1.8932,-1.8907,-1.891,-1.8927,-1.8922,-1.8929,-1.8916,-1.89,-1.8897,-1.8864,-1.8883,-1.8837,-1.8862,-1.8832,-1.8834,-1.8824,-1.8826,-1.8826,-1.8776,-1.885,-1.8973,-1.8984,-1.8826,-1.8825,-1.8823,0,-1.8988,-1.8993,-1.9019,-1.9015,-1.8987,-1.9,-1.8989,-1.8973,-1.8974,-1.897,-1.897,-1.8969,-1.8968,-1.8968,-1.8936,-1.8905,-1.8965,-1.8917,-1.8953,-1.8954,-1.8968,-1.8967,-1.9092,-1.897,-1.8969,-1.8969,-1.8969,0,-1.9083,-1.9111,-1.9061,-1.9077,-1.9106,-1.9065,-1.9095,-1.9079,-1.9065,-1.9077,-1.9033,-1.9045,-1.9001,-1.9008,-1.8983,-1.9007,-1.9008,-1.8996,-1.8989,-1.9,-1.9001,-1.9,-1.8994,-1.8972,-1.8972,-1.8971,-1.897,0,-1.9194,-1.9162,-1.9186,-1.9157,-1.915,-1.9173,-1.9148,-1.9161,-1.9139,-1.9154,-1.9156,-1.9121,-1.9127,-1.9095,-1.9095,-1.9078,-1.9115,-1.9099,-1.912,-1.9115,-1.9153,-1.915,-1.9281,-1.9297,-1.9165,-1.9166,-1.9167,0,-1.9257,-1.9276,-1.9249,-1.9253,-1.9244,-1.9252,-1.9253,-1.9213,-1.9215,-1.9201,-1.9216,-1.9218,-1.9218,-1.9231,-1.9206,-1.9206,-1.919,-1.9236,-1.9189,-1.92,-1.919,-1.9189,-1.9191,-1.9246,-1.9247,-1.9249,-1.925,0,-1.9371,-1.9354,-1.9356,-1.9353,-1.9355,-1.935,-1.9343,-1.9349,-1.9306,-1.9311,-1.9317,-1.9317,-1.9317,-1.932,-1.9315,-1.9303,-1.927,-1.9264,-1.9273,-1.9284,-1.9295,-1.9289,-1.9146,-1.9262,-1.926,-1.9259,-1.9259,-1.9258,-1.946,-1.9474,-1.9457,-1.9461,-1.9451,-1.9445,-1.9456,-1.9435,-1.9438,-1.9435,-1.9411,-1.9421,-1.9406,-1.9396,-1.9388,-1.9395,-1.9373,-1.9385,-1.9388,-1.9392,-1.9398,-1.9294,-1.9394,-1.9393,-1.9393,-1.9393,-1.9392,0,-1.9572,-1.9558,-1.9562,-1.9552,-1.9555,-1.9522,-1.9512,-1.9517,-1.9526,-1.9515,-1.9515,-1.9521,-1.9524,-1.9499,-1.9498,-1.9508,-1.9493,-1.951,-1.9508,-1.9506,-1.9418,-1.9411,-1.9522,-1.9522,-1.9522,-1.9522,-1.9522,-1.9522,-1.963,-1.9653,-1.9634,-1.9652,-1.9638,-1.9647,-1.9644,-1.9638,-1.9628,-1.9637,-1.9638,-1.9622,-1.9605,-1.9602,-1.9603,-1.9596,-1.9597,-1.9619,-1.9607,-1.9525,-1.9513,-1.95,-1.9493,-1.962,-1.962,-1.9694,-1.9695,-1.9695]}]]